Location: Cactus School
(34.5700°N, 118.0931°W)
Time: 14:00:39
(UTC-07:00)

Transit 4A - Visible Passes

Search period start: 12 April 2024 00:00
Search period end: 22 April 2024 00:00
Orbit: 871 x 972 km, 66.8° (Epoch: 12 April)

Date Brightness Start Highest point End Pass type
(mag) Time Alt. Az. Time Alt. Az. Time Alt. Az.
12 Apr 10.5 00:26:22 10° NNW 00:26:58 13° NNW 00:26:58 13° NNW visible
12 Apr 10.2 22:51:06 10° NNE 22:52:15 12° NNE 22:52:15 12° NNE visible
13 Apr 10.5 00:35:22 10° NNW 00:35:44 12° NNW 00:35:44 12° NNW visible
13 Apr 10.0 22:59:14 10° N 23:01:03 16° NNE 23:01:03 16° NNE visible
14 Apr 9.9 23:07:44 10° N 23:09:52 20° N 23:09:52 20° N visible
15 Apr 9.7 23:16:27 10° NNW 23:18:43 23° N 23:18:43 23° N visible
16 Apr 10.0 21:42:26 10° NNE 21:43:51 11° NE 21:44:06 11° NE visible
16 Apr 9.7 23:25:21 10° NNW 23:27:35 24° NNW 23:27:35 24° NNW visible
17 Apr 9.7 21:49:46 10° N 21:52:59 16° NE 21:52:59 16° NE visible
17 Apr 9.8 23:34:23 10° NNW 23:36:29 23° NNW 23:36:29 23° NNW visible
18 Apr 9.3 21:58:02 10° N 22:01:55 23° NE 22:01:55 23° NE visible
18 Apr 9.9 23:43:37 10° NW 23:45:25 20° NW 23:45:25 20° NW visible
19 Apr 8.9 22:06:36 10° N 22:10:53 33° NE 22:10:53 33° NE visible
19 Apr 10.2 23:53:05 10° NW 23:54:23 16° WNW 23:54:23 16° WNW visible
20 Apr 8.5 22:15:23 10° NNW 22:19:53 46° NNE 22:19:53 46° NNE visible
21 Apr 10.4 00:02:57 10° WNW 00:03:23 11° WNW 00:03:23 11° WNW visible
21 Apr 9.8 20:40:38 10° NNE 20:43:00 12° NE 20:45:21 10° ENE visible
21 Apr 8.2 22:24:20 10° NNW 22:28:55 57° NNW 22:28:55 57° NNW visible
